weather.gov     
National Weather Service

Terminal Aerodrome Forecast
NWS Homepage
This page is being discontinued on March 12, 2014.
The same data is available at this site. Please update your bookmarks.
Thank you, and we apologize for the inconvenience.
Please send an email to SR-SRH.Webmaster@noaa.gov with any concerns.


Current Version
Previous Version:    01  02  03  04  05  06  07  08  09  10  11  12  13  14  15  16  17  18  19  20  21  22  23  24  25  26  27  
[Printable]
142
FTUS42 KMHX 231700
TAFOAJ
TAF
KOAJ 231720Z 2318/2418 05006KT P6SM -RA SCT030 BKN050 OVC070
     FM232000 12007KT 4SM -RA BKN030
     FM232300 13015G20KT 3SM RA BKN020
     FM240300 19010G15KT 3SM RA BKN020
      TEMPO 2404/2408 2SM TSRA OVC020CB
     FM240800 20010G15KT 4SM SHRA BR OVC030
     FM241500 21010G15KT P6SM OVC040
      AMD LTD TO CLD VIS AND WIND=


U.S. Dept. of Commerce
NOAA National Weather Service
1325 East West Highway
Silver Spring, MD 20910
E-mail: w-nws.webmaster@noaa.gov
Page last modified: May 16, 2007
NATIONAL WEATHER SERVICE: for Safety, for Work, for Fun - FOR LIFE